LPE2408 SPJC-MROC

Flight info

Callsign LPE2408
Flight time N/A
Altitude 36000
Route BTE UV1 TRU UL780 GYV UM659 DRAKE PARRI4D
Aircraft A320/M-SDE3FGHIRWY/LB1

Departure

Time 2026-05-06 15:18
Airport Jorge Chávez International Airport (SPJC)

Arrival

Time N/A
Airport Juan Santamaría International Airport (MROC)
Time Latitude Longitude Altitude Speed Heading
2026-05-06 14:50 -12.02917 -77.11851 80 ft 0 kts 154°
2026-05-06 15:04 -12.02898 -77.11860 84 ft 4 kts 153°
2026-05-06 15:04 -12.02874 -77.11873 83 ft 4 kts 153°
2026-05-06 15:04 -12.02850 -77.11886 85 ft 4 kts 152°
2026-05-06 15:05 -12.02826 -77.11898 85 ft 4 kts 152°
2026-05-06 15:05 -12.02802 -77.11912 84 ft 4 kts 152°
2026-05-06 15:05 -12.02778 -77.11925 84 ft 4 kts 154°
2026-05-06 15:05 -12.02773 -77.11927 83 ft 1 kts 154°
2026-05-06 15:08 -12.02780 -77.11924 84 ft 2 kts 155°
2026-05-06 15:08 -12.02799 -77.11917 85 ft 4 kts 167°
2026-05-06 15:08 -12.02837 -77.11932 81 ft 9 kts 228°
2026-05-06 15:08 -12.02867 -77.11992 70 ft 8 kts 244°
2026-05-06 15:09 -12.02849 -77.12051 61 ft 5 kts 332°
2026-05-06 15:09 -12.02826 -77.12060 69 ft 4 kts 338°
2026-05-06 15:09 -12.02797 -77.12073 68 ft 5 kts 334°
2026-05-06 15:09 -12.02760 -77.12092 69 ft 7 kts 335°
2026-05-06 15:10 -12.02708 -77.12116 70 ft 9 kts 335°
2026-05-06 15:10 -12.02645 -77.12149 67 ft 12 kts 333°
2026-05-06 15:10 -12.02568 -77.12188 58 ft 12 kts 335°
2026-05-06 15:10 -12.02482 -77.12229 63 ft 15 kts 334°
2026-05-06 15:11 -12.02397 -77.12271 53 ft 15 kts 334°
2026-05-06 15:11 -12.02288 -77.12324 53 ft 18 kts 334°
2026-05-06 15:11 -12.02191 -77.12348 53 ft 13 kts 39°
2026-05-06 15:11 -12.02155 -77.12284 54 ft 6 kts 64°
2026-05-06 15:12 -12.02139 -77.12250 53 ft 5 kts 64°
2026-05-06 15:12 -12.02128 -77.12226 56 ft 3 kts 65°
2026-05-06 15:12 -12.02124 -77.12217 58 ft 1 kts 64°
2026-05-06 15:12 -12.02121 -77.12210 59 ft 1 kts 64°
2026-05-06 15:13 -12.02117 -77.12202 54 ft 2 kts 64°
2026-05-06 15:13 -12.02111 -77.12190 60 ft 3 kts 65°
2026-05-06 15:13 -12.02101 -77.12170 55 ft 4 kts 63°
2026-05-06 15:13 -12.02088 -77.12142 61 ft 5 kts 64°
2026-05-06 15:14 -12.02067 -77.12099 61 ft 8 kts 63°
2026-05-06 15:14 -12.02037 -77.12035 57 ft 12 kts 65°
2026-05-06 15:14 -12.01997 -77.11954 63 ft 13 kts 63°
2026-05-06 15:14 -12.01954 -77.11863 62 ft 15 kts 64°
2026-05-06 15:15 -12.01904 -77.11770 63 ft 14 kts 46°
2026-05-06 15:15 -12.01814 -77.11792 68 ft 15 kts 334°
2026-05-06 15:15 -12.01710 -77.11844 61 ft 18 kts 333°
2026-05-06 15:15 -12.01604 -77.11895 63 ft 13 kts 348°
2026-05-06 15:16 -12.01558 -77.11862 63 ft 6 kts 61°
2026-05-06 15:16 -12.01545 -77.11834 66 ft 4 kts 65°
2026-05-06 15:16 -12.01522 -77.11795 61 ft 9 kts 54°
2026-05-06 15:16 -12.01526 -77.11761 62 ft 2 kts 171°
2026-05-06 15:17 -12.01531 -77.11758 60 ft 5 kts 155°
2026-05-06 15:17 -12.01825 -77.11612 60 ft 87 kts 153°
2026-05-06 15:17 -12.02563 -77.11249 95 ft 146 kts 154°
2026-05-06 15:17 -12.03537 -77.10762 555 ft 158 kts 156°
2026-05-06 15:18 -12.04522 -77.10274 1333 ft 159 kts 155°
2026-05-06 15:18 -12.05579 -77.09755 1812 ft 178 kts 155°
2026-05-06 15:18 -12.06344 -77.09379 1972 ft 192 kts 154°
2026-05-06 15:18 -12.07622 -77.08750 2216 ft 213 kts 155°
2026-05-06 15:19 -12.09005 -77.08071 2577 ft 231 kts 154°
2026-05-06 15:19 -12.10527 -77.07322 2943 ft 254 kts 154°
2026-05-06 15:19 -12.12151 -77.06522 3588 ft 263 kts 154°
2026-05-06 15:19 -12.13911 -77.05980 4306 ft 269 kts 179°
2026-05-06 15:20 -12.15709 -77.06479 5017 ft 275 kts 213°
2026-05-06 15:20 -12.17079 -77.07845 5746 ft 278 kts 236°
2026-05-06 15:20 -12.17838 -77.09655 6499 ft 281 kts 259°
2026-05-06 15:20 -12.17581 -77.12273 7359 ft 287 kts 294°
2026-05-06 15:21 -12.16879 -77.13451 7790 ft 290 kts 311°
2026-05-06 15:21 -12.15277 -77.14693 8416 ft 294 kts 335°
2026-05-06 15:21 -12.13383 -77.15512 9065 ft 297 kts 338°
2026-05-06 15:21 -12.11463 -77.16332 9714 ft 300 kts 337°
2026-05-06 15:22 -12.09534 -77.17193 10257 ft 307 kts 336°
2026-05-06 15:22 -12.07515 -77.18119 10378 ft 329 kts 336°
2026-05-06 15:22 -12.05375 -77.19116 10500 ft 348 kts 335°
2026-05-06 15:22 -12.03138 -77.20162 10818 ft 358 kts 335°
2026-05-06 15:23 -12.00858 -77.21229 11314 ft 362 kts 336°
2026-05-06 15:23 -11.98558 -77.22303 11823 ft 366 kts 336°
2026-05-06 15:23 -11.96233 -77.23385 12354 ft 369 kts 336°
2026-05-06 15:23 -11.93915 -77.24460 12868 ft 372 kts 336°
2026-05-06 15:24 -11.91515 -77.25568 13383 ft 375 kts 336°
2026-05-06 15:24 -11.89157 -77.26654 13907 ft 378 kts 336°
2026-05-06 15:24 -11.86757 -77.27759 14345 ft 381 kts 336°
2026-05-06 15:24 -11.84330 -77.28879 14807 ft 383 kts 336°
2026-05-06 15:25 -11.81890 -77.30008 15240 ft 387 kts 336°
2026-05-06 15:25 -11.79433 -77.31145 15708 ft 389 kts 336°
2026-05-06 15:25 -11.76957 -77.32292 16170 ft 392 kts 336°
2026-05-06 15:25 -11.74470 -77.33443 16633 ft 394 kts 336°
2026-05-06 15:26 -11.71962 -77.34601 17099 ft 397 kts 336°
2026-05-06 15:26 -11.69438 -77.35767 17531 ft 400 kts 336°
2026-05-06 15:26 -11.66889 -77.36943 18003 ft 403 kts 336°
2026-05-06 15:26 -11.64322 -77.38127 18428 ft 406 kts 336°
2026-05-06 15:27 -11.61743 -77.39314 18858 ft 408 kts 336°
2026-05-06 15:27 -11.59148 -77.40510 19281 ft 410 kts 336°
2026-05-06 15:27 -11.56546 -77.41710 19761 ft 411 kts 336°
2026-05-06 15:27 -11.53935 -77.42913 20205 ft 413 kts 336°
2026-05-06 15:28 -11.51316 -77.44120 20676 ft 414 kts 336°
2026-05-06 15:28 -11.48682 -77.45333 21130 ft 416 kts 336°
2026-05-06 15:28 -11.46043 -77.46548 21592 ft 417 kts 336°
2026-05-06 15:28 -11.43398 -77.47768 22031 ft 418 kts 336°
2026-05-06 15:29 -11.40743 -77.48993 22435 ft 420 kts 336°
2026-05-06 15:29 -11.38077 -77.50221 22848 ft 421 kts 336°
2026-05-06 15:29 -11.35440 -77.51432 23256 ft 422 kts 336°
2026-05-06 15:29 -11.32721 -77.52680 23640 ft 423 kts 336°
2026-05-06 15:30 -11.30067 -77.53900 23943 ft 425 kts 336°
2026-05-06 15:30 -11.27363 -77.55144 24241 ft 427 kts 336°
2026-05-06 15:30 -11.24656 -77.56390 24541 ft 428 kts 336°
2026-05-06 15:30 -11.21935 -77.57644 24845 ft 430 kts 336°
2026-05-06 15:31 -11.19206 -77.58901 25159 ft 431 kts 336°
2026-05-06 15:31 -11.16472 -77.60157 25465 ft 432 kts 337°
2026-05-06 15:31 -11.13730 -77.61415 25782 ft 432 kts 337°
2026-05-06 15:32 -11.08238 -77.63935 26384 ft 434 kts 337°
2026-05-06 15:32 -11.05486 -77.65200 26682 ft 435 kts 337°
2026-05-06 15:32 -11.02722 -77.66472 26939 ft 436 kts 337°
2026-05-06 15:32 -10.99952 -77.67746 27197 ft 437 kts 337°
2026-05-06 15:33 -10.97176 -77.69022 27472 ft 438 kts 338°
2026-05-06 15:33 -10.94392 -77.70298 27747 ft 439 kts 338°
2026-05-06 15:33 -10.91606 -77.71575 28020 ft 440 kts 338°
2026-05-06 15:33 -10.88806 -77.72860 28331 ft 441 kts 338°
2026-05-06 15:34 -10.86022 -77.74136 28749 ft 438 kts 338°
2026-05-06 15:34 -10.83247 -77.75407 29180 ft 436 kts 338°
2026-05-06 15:34 -10.80487 -77.76669 29612 ft 434 kts 338°
2026-05-06 15:34 -10.77743 -77.77926 30055 ft 432 kts 338°
2026-05-06 15:35 -10.75009 -77.79180 30443 ft 430 kts 338°
2026-05-06 15:35 -10.72289 -77.80429 30769 ft 429 kts 338°
2026-05-06 15:35 -10.69601 -77.81663 31074 ft 429 kts 338°
2026-05-06 15:35 -10.66843 -77.82926 31360 ft 429 kts 338°
2026-05-06 15:36 -10.64162 -77.84153 31652 ft 429 kts 338°
2026-05-06 15:36 -10.61438 -77.85399 32000 ft 429 kts 337°
2026-05-06 15:36 -10.58720 -77.86642 32329 ft 428 kts 337°
2026-05-06 15:36 -10.56007 -77.87878 32656 ft 427 kts 337°
2026-05-06 15:37 -10.53292 -77.89117 32991 ft 427 kts 336°
2026-05-06 15:37 -10.50583 -77.90355 33316 ft 426 kts 336°
2026-05-06 15:37 -10.47881 -77.91589 33661 ft 426 kts 336°
2026-05-06 15:37 -10.45184 -77.92820 33960 ft 425 kts 336°
2026-05-06 15:38 -10.42484 -77.94053 34237 ft 425 kts 336°
2026-05-06 15:38 -10.39795 -77.95282 34497 ft 424 kts 336°
2026-05-06 15:38 -10.37108 -77.96512 34737 ft 423 kts 335°
2026-05-06 15:38 -10.34424 -77.97742 35039 ft 422 kts 335°
2026-05-06 15:39 -10.31746 -77.98968 35253 ft 423 kts 335°
2026-05-06 15:39 -10.29065 -78.00194 35486 ft 423 kts 335°
2026-05-06 15:39 -10.26389 -78.01417 35728 ft 422 kts 335°
2026-05-06 15:39 -10.23706 -78.02640 35970 ft 422 kts 335°
2026-05-06 15:40 -10.21029 -78.03860 36075 ft 423 kts 335°
2026-05-06 15:40 -10.18329 -78.05091 36123 ft 428 kts 335°
2026-05-06 15:40 -10.12842 -78.07590 36119 ft 436 kts 335°
2026-05-06 15:41 -10.07296 -78.10113 36123 ft 437 kts 335°
2026-05-06 15:41 -10.01781 -78.12624 36110 ft 437 kts 335°
2026-05-06 15:42 -9.96223 -78.15161 36110 ft 438 kts 335°
2026-05-06 15:42 -9.90661 -78.17704 36127 ft 439 kts 335°
2026-05-06 15:43 -9.85087 -78.20241 36126 ft 439 kts 336°
2026-05-06 15:43 -9.79509 -78.22773 36126 ft 439 kts 336°
2026-05-06 15:44 -9.73935 -78.25304 36116 ft 439 kts 335°
2026-05-06 15:44 -9.68360 -78.27844 36117 ft 439 kts 335°
2026-05-06 15:45 -9.62784 -78.30384 36102 ft 439 kts 335°
2026-05-06 15:45 -9.57205 -78.32915 36099 ft 440 kts 335°
2026-05-06 15:46 -9.51623 -78.35448 36099 ft 440 kts 335°
2026-05-06 15:46 -9.46035 -78.37991 36077 ft 440 kts 335°
2026-05-06 15:47 -9.40453 -78.40529 36031 ft 440 kts 335°
2026-05-06 15:47 -9.34858 -78.43067 36030 ft 440 kts 336°
2026-05-06 15:48 -9.29305 -78.45589 36026 ft 440 kts 335°
2026-05-06 15:48 -9.23711 -78.48131 36022 ft 440 kts 335°
2026-05-06 15:49 -9.18117 -78.50664 36021 ft 441 kts 336°
2026-05-06 15:49 -9.12555 -78.53270 36010 ft 441 kts 333°
2026-05-06 15:50 -9.07173 -78.56246 36015 ft 441 kts 330°
2026-05-06 15:50 -9.01859 -78.59349 36035 ft 441 kts 330°
2026-05-06 15:51 -8.96509 -78.62399 36035 ft 441 kts 331°
2026-05-06 15:51 -8.91140 -78.65394 36059 ft 441 kts 331°
2026-05-06 15:52 -8.85753 -78.68385 36065 ft 442 kts 331°
2026-05-06 15:52 -8.80366 -78.71379 36014 ft 442 kts 330°
2026-05-06 15:53 -8.74982 -78.74387 36035 ft 443 kts 330°
2026-05-06 15:53 -8.69583 -78.77402 36036 ft 443 kts 330°
2026-05-06 15:54 -8.64187 -78.80410 36037 ft 443 kts 330°
2026-05-06 15:54 -8.58795 -78.83416 36080 ft 443 kts 331°
2026-05-06 15:55 -8.53393 -78.86420 36018 ft 443 kts 331°
2026-05-06 15:55 -8.48025 -78.89406 36051 ft 444 kts 331°
2026-05-06 15:56 -8.42624 -78.92415 36053 ft 444 kts 331°
2026-05-06 15:56 -8.37207 -78.95424 36052 ft 444 kts 331°
2026-05-06 15:57 -8.31799 -78.98430 36028 ft 444 kts 331°
2026-05-06 15:57 -8.26383 -79.01437 36030 ft 444 kts 331°
2026-05-06 15:58 -8.20975 -79.04446 36032 ft 444 kts 331°
2026-05-06 15:58 -8.15562 -79.07459 36027 ft 444 kts 330°
2026-05-06 15:59 -8.10101 -79.10378 36024 ft 445 kts 337°
2026-05-06 15:59 -8.04097 -79.11845 36025 ft 446 kts 352°
2026-05-06 16:00 -7.97929 -79.12614 36023 ft 447 kts 352°
2026-05-06 16:00 -7.91760 -79.13393 36023 ft 447 kts 352°
2026-05-06 16:01 -7.85594 -79.14176 36023 ft 447 kts 352°
2026-05-06 16:01 -7.79458 -79.14950 36022 ft 447 kts 352°
2026-05-06 16:02 -7.73244 -79.15736 36032 ft 447 kts 352°
2026-05-06 16:02 -7.67061 -79.16517 36034 ft 448 kts 352°
2026-05-06 16:03 -7.60924 -79.17285 36035 ft 447 kts 352°
2026-05-06 16:03 -7.54746 -79.18069 36036 ft 447 kts 352°
2026-05-06 16:04 -7.48568 -79.18855 36037 ft 448 kts 352°
2026-05-06 16:04 -7.42389 -79.19634 36040 ft 448 kts 352°
2026-05-06 16:05 -7.36206 -79.20411 36039 ft 448 kts 352°
2026-05-06 16:05 -7.30018 -79.21189 36057 ft 448 kts 352°
2026-05-06 16:06 -7.23829 -79.21965 36058 ft 448 kts 352°
2026-05-06 16:06 -7.17637 -79.22747 36059 ft 448 kts 352°
2026-05-06 16:07 -7.11450 -79.23527 36076 ft 448 kts 352°
2026-05-06 16:07 -7.05260 -79.24308 36073 ft 448 kts 352°
2026-05-06 16:08 -6.99066 -79.25087 36081 ft 449 kts 352°
2026-05-06 16:08 -6.92868 -79.25864 36081 ft 449 kts 352°
2026-05-06 16:09 -6.86669 -79.26644 36092 ft 449 kts 352°
2026-05-06 16:09 -6.80509 -79.27422 36095 ft 449 kts 352°
2026-05-06 16:10 -6.74271 -79.28208 36057 ft 449 kts 352°
2026-05-06 16:10 -6.68112 -79.28980 36076 ft 448 kts 352°
2026-05-06 16:11 -6.61927 -79.29758 36073 ft 448 kts 352°
2026-05-06 16:11 -6.56750 -79.30407 36099 ft 447 kts 352°
2026-05-06 16:12 -6.50574 -79.31179 36098 ft 447 kts 352°
2026-05-06 16:12 -6.44402 -79.31953 36094 ft 447 kts 352°
2026-05-06 16:13 -6.38276 -79.32730 36113 ft 447 kts 352°
2026-05-06 16:13 -6.32105 -79.33504 36112 ft 446 kts 352°
2026-05-06 16:14 -6.25949 -79.34281 36139 ft 446 kts 352°
2026-05-06 16:14 -6.19797 -79.35054 36138 ft 445 kts 352°
2026-05-06 16:15 -6.13654 -79.35819 36130 ft 445 kts 352°
2026-05-06 16:15 -6.07510 -79.36587 36144 ft 445 kts 352°
2026-05-06 16:16 -6.01370 -79.37359 36133 ft 445 kts 352°
2026-05-06 16:16 -5.95217 -79.38131 36144 ft 445 kts 352°
2026-05-06 16:17 -5.89067 -79.38901 36136 ft 446 kts 352°
2026-05-06 16:17 -5.82906 -79.39673 36144 ft 446 kts 352°
2026-05-06 16:18 -5.76787 -79.40432 36143 ft 446 kts 352°
2026-05-06 16:18 -5.70631 -79.41204 36138 ft 446 kts 352°
2026-05-06 16:19 -5.64466 -79.41975 36157 ft 446 kts 352°
2026-05-06 16:19 -5.58299 -79.42750 36118 ft 447 kts 351°
2026-05-06 16:20 -5.52124 -79.43519 36130 ft 448 kts 351°
2026-05-06 16:20 -5.45939 -79.44282 36133 ft 448 kts 351°
2026-05-06 16:21 -5.39752 -79.45060 36132 ft 448 kts 351°
2026-05-06 16:21 -5.33555 -79.45841 36156 ft 449 kts 352°
2026-05-06 16:22 -5.27363 -79.46623 36165 ft 449 kts 351°
2026-05-06 16:22 -5.21151 -79.47398 36180 ft 450 kts 351°
2026-05-06 16:23 -5.14944 -79.48169 36180 ft 450 kts 352°
2026-05-06 16:23 -5.08734 -79.48948 36200 ft 450 kts 352°
2026-05-06 16:24 -5.02559 -79.49720 36195 ft 450 kts 351°
2026-05-06 16:24 -4.96354 -79.50500 36198 ft 450 kts 352°
2026-05-06 16:25 -4.90143 -79.51278 36195 ft 449 kts 351°
2026-05-06 16:25 -4.83933 -79.52049 36191 ft 450 kts 352°
2026-05-06 16:26 -4.77710 -79.52822 36176 ft 451 kts 352°
2026-05-06 16:26 -4.71479 -79.53600 36176 ft 451 kts 352°
2026-05-06 16:27 -4.65252 -79.54381 36173 ft 451 kts 352°
2026-05-06 16:27 -4.59025 -79.55160 36157 ft 451 kts 352°
2026-05-06 16:28 -4.52800 -79.55938 36156 ft 451 kts 352°
2026-05-06 16:28 -4.46572 -79.56718 36140 ft 451 kts 352°
2026-05-06 16:29 -4.40343 -79.57513 36110 ft 451 kts 352°
2026-05-06 16:29 -4.34119 -79.58322 36098 ft 451 kts 352°
2026-05-06 16:30 -4.28947 -79.58991 36096 ft 451 kts 352°
2026-05-06 16:30 -4.21718 -79.59924 36111 ft 451 kts 352°
2026-05-06 16:31 -4.15494 -79.60724 36115 ft 451 kts 351°
2026-05-06 16:31 -4.09273 -79.61523 36127 ft 451 kts 352°
2026-05-06 16:32 -4.03047 -79.62317 36131 ft 451 kts 352°
2026-05-06 16:32 -3.96819 -79.63117 36128 ft 452 kts 352°
2026-05-06 16:33 -3.90588 -79.63917 36126 ft 452 kts 352°
2026-05-06 16:34 -3.81228 -79.65107 36109 ft 452 kts 352°
2026-05-06 16:34 -3.74997 -79.65907 36113 ft 451 kts 351°
2026-05-06 16:35 -3.68762 -79.66715 36106 ft 452 kts 352°
2026-05-06 16:35 -3.62533 -79.67517 36103 ft 452 kts 352°
2026-05-06 16:36 -3.56293 -79.68319 36107 ft 452 kts 351°
2026-05-06 16:36 -3.50051 -79.69112 36073 ft 452 kts 352°
2026-05-06 16:37 -3.43814 -79.69909 36079 ft 452 kts 352°
2026-05-06 16:37 -3.37576 -79.70712 36077 ft 452 kts 352°
2026-05-06 16:38 -3.31329 -79.71517 36077 ft 453 kts 352°
2026-05-06 16:38 -3.25071 -79.72321 36043 ft 454 kts 352°
2026-05-06 16:39 -3.18805 -79.73120 36058 ft 454 kts 352°
2026-05-06 16:39 -3.12582 -79.73917 36058 ft 454 kts 352°
2026-05-06 16:40 -3.06313 -79.74717 36063 ft 454 kts 352°
2026-05-06 16:40 -3.00047 -79.75512 36060 ft 454 kts 351°
2026-05-06 16:41 -2.93778 -79.76318 36052 ft 454 kts 352°
2026-05-06 16:41 -2.87505 -79.77119 36051 ft 455 kts 352°
2026-05-06 16:42 -2.81228 -79.77923 36032 ft 455 kts 352°
2026-05-06 16:42 -2.74940 -79.78733 36033 ft 455 kts 352°
2026-05-06 16:43 -2.68650 -79.79537 36006 ft 456 kts 352°
2026-05-06 16:43 -2.62357 -79.80338 36013 ft 456 kts 352°
2026-05-06 16:44 -2.56059 -79.81145 36009 ft 457 kts 352°
2026-05-06 16:44 -2.49760 -79.81957 35985 ft 457 kts 352°
2026-05-06 16:45 -2.43488 -79.82760 35978 ft 457 kts 352°
2026-05-06 16:45 -2.37172 -79.83570 35967 ft 458 kts 352°
2026-05-06 16:46 -2.30853 -79.84381 35969 ft 458 kts 352°
2026-05-06 16:46 -2.24538 -79.85193 35966 ft 458 kts 352°
2026-05-06 16:47 -2.18209 -79.85993 35963 ft 459 kts 352°
2026-05-06 16:47 -2.11928 -79.87072 35964 ft 458 kts 342°
2026-05-06 16:48 -2.05961 -79.89312 35941 ft 458 kts 339°
2026-05-06 16:48 -2.00008 -79.91580 35940 ft 458 kts 339°
2026-05-06 16:49 -1.94048 -79.93846 35948 ft 458 kts 339°
2026-05-06 16:49 -1.88088 -79.96113 35948 ft 458 kts 339°
2026-05-06 16:50 -1.82164 -79.98366 35947 ft 458 kts 339°
2026-05-06 16:50 -1.76203 -80.00639 35955 ft 459 kts 339°
2026-05-06 16:51 -1.70242 -80.02910 35942 ft 459 kts 339°
2026-05-06 16:51 -1.64278 -80.05177 35952 ft 458 kts 339°
2026-05-06 16:52 -1.58315 -80.07446 35950 ft 458 kts 339°
2026-05-06 16:52 -1.52358 -80.09717 35949 ft 458 kts 339°
2026-05-06 16:53 -1.46398 -80.11989 35949 ft 458 kts 339°
2026-05-06 16:53 -1.40438 -80.14260 35942 ft 459 kts 339°
2026-05-06 16:54 -1.34465 -80.16530 35954 ft 459 kts 338°
2026-05-06 16:54 -1.28491 -80.18807 35943 ft 460 kts 339°
2026-05-06 16:55 -1.22511 -80.21084 35948 ft 460 kts 339°
2026-05-06 16:55 -1.16529 -80.23364 35961 ft 460 kts 339°
2026-05-06 16:56 -1.10546 -80.25642 35961 ft 460 kts 339°
2026-05-06 16:56 -1.04557 -80.27922 35971 ft 461 kts 339°
2026-05-06 16:57 -0.98593 -80.30192 35976 ft 462 kts 339°
2026-05-06 16:57 -0.92592 -80.32477 35959 ft 462 kts 339°
2026-05-06 16:58 -0.86589 -80.34767 35961 ft 462 kts 339°
2026-05-06 16:58 -0.80580 -80.37062 35962 ft 462 kts 339°
2026-05-06 16:59 -0.74578 -80.39346 35959 ft 462 kts 339°
2026-05-06 16:59 -0.68568 -80.41627 35956 ft 462 kts 338°
2026-05-06 17:00 -0.62564 -80.43909 35956 ft 462 kts 338°
2026-05-06 17:00 -0.56556 -80.46197 35947 ft 462 kts 339°
2026-05-06 17:01 -0.50538 -80.48493 35945 ft 463 kts 338°
2026-05-06 17:01 -0.44522 -80.50788 35951 ft 463 kts 339°
2026-05-06 17:02 -0.38505 -80.53072 35952 ft 463 kts 338°
2026-05-06 17:02 -0.32486 -80.55360 35951 ft 463 kts 339°
2026-05-06 17:03 -0.27480 -80.57269 35958 ft 463 kts 339°
2026-05-06 17:03 -0.21460 -80.59562 35957 ft 463 kts 338°
2026-05-06 17:04 -0.15425 -80.61852 35963 ft 464 kts 339°
2026-05-06 17:04 -0.09394 -80.64144 35964 ft 464 kts 339°
2026-05-06 17:05 -0.03370 -80.66442 35965 ft 464 kts 338°
2026-05-06 17:05 0.02670 -80.68742 35974 ft 464 kts 339°
2026-05-06 17:06 0.08706 -80.71041 35970 ft 465 kts 339°
2026-05-06 17:06 0.14754 -80.73343 35971 ft 465 kts 339°
2026-05-06 17:07 0.20804 -80.75647 35973 ft 466 kts 339°
2026-05-06 17:07 0.26857 -80.77947 35980 ft 466 kts 339°
2026-05-06 17:08 0.32912 -80.80252 35979 ft 466 kts 339°
2026-05-06 17:08 0.38927 -80.82543 35981 ft 465 kts 339°
2026-05-06 17:09 0.44982 -80.84850 35977 ft 466 kts 339°
2026-05-06 17:09 0.51037 -80.87150 35978 ft 466 kts 339°
2026-05-06 17:10 0.57096 -80.89459 35978 ft 466 kts 339°
2026-05-06 17:10 0.63156 -80.91761 35975 ft 466 kts 339°
2026-05-06 17:11 0.69215 -80.94059 35978 ft 466 kts 339°
2026-05-06 17:11 0.75271 -80.96365 35976 ft 466 kts 339°
2026-05-06 17:12 0.81317 -80.98672 35979 ft 465 kts 340°
2026-05-06 17:12 0.87359 -81.00976 35977 ft 464 kts 340°
2026-05-06 17:13 0.93395 -81.03276 35978 ft 464 kts 340°
2026-05-06 17:13 0.99424 -81.05571 35977 ft 464 kts 340°
2026-05-06 17:14 1.05455 -81.07863 35974 ft 464 kts 340°
2026-05-06 17:14 1.11443 -81.10148 35974 ft 464 kts 339°
2026-05-06 17:15 1.17473 -81.12441 35977 ft 463 kts 340°
2026-05-06 17:15 1.23487 -81.14736 35976 ft 463 kts 340°
2026-05-06 17:16 1.29500 -81.17027 35976 ft 462 kts 340°
2026-05-06 17:16 1.35509 -81.19310 35975 ft 462 kts 340°
2026-05-06 17:17 1.41517 -81.21597 35968 ft 462 kts 340°
2026-05-06 17:17 1.47537 -81.23875 35968 ft 462 kts 340°
2026-05-06 17:18 1.53554 -81.26133 35970 ft 462 kts 340°
2026-05-06 17:18 1.59567 -81.28401 35968 ft 462 kts 341°
2026-05-06 17:19 1.65575 -81.30675 35973 ft 461 kts 341°
2026-05-06 17:19 1.71571 -81.32949 35975 ft 461 kts 341°
2026-05-06 17:20 1.77568 -81.35213 35978 ft 461 kts 341°
2026-05-06 17:20 1.83566 -81.37476 35981 ft 460 kts 341°
2026-05-06 17:21 1.89564 -81.39731 35975 ft 460 kts 341°
2026-05-06 17:21 1.95551 -81.41996 35979 ft 460 kts 341°
2026-05-06 17:22 2.01490 -81.44240 35983 ft 459 kts 341°
2026-05-06 17:22 2.07473 -81.46498 35982 ft 459 kts 341°
2026-05-06 17:23 2.13444 -81.48756 35980 ft 459 kts 341°
2026-05-06 17:23 2.19419 -81.51011 35979 ft 459 kts 341°
2026-05-06 17:24 2.25395 -81.53265 35977 ft 459 kts 341°
2026-05-06 17:24 2.31370 -81.55525 35982 ft 458 kts 341°
2026-05-06 17:25 2.37324 -81.57781 35983 ft 458 kts 341°
2026-05-06 17:25 2.43281 -81.60028 35984 ft 457 kts 341°
2026-05-06 17:26 2.49232 -81.62264 35981 ft 457 kts 341°
2026-05-06 17:26 2.55183 -81.64518 35981 ft 457 kts 341°
2026-05-06 17:27 2.61084 -81.66758 35974 ft 457 kts 341°
2026-05-06 17:27 2.67025 -81.69007 35973 ft 457 kts 341°
2026-05-06 17:28 2.72968 -81.71256 35976 ft 457 kts 341°
2026-05-06 17:28 2.78915 -81.73499 35976 ft 457 kts 341°
2026-05-06 17:29 2.84858 -81.75745 35973 ft 457 kts 341°
2026-05-06 17:29 2.90797 -81.77995 35973 ft 457 kts 341°
2026-05-06 17:30 2.96744 -81.80242 35974 ft 457 kts 341°
2026-05-06 17:30 3.02689 -81.82492 35973 ft 457 kts 341°
2026-05-06 17:31 3.08630 -81.84732 35974 ft 457 kts 341°
2026-05-06 17:31 3.14574 -81.86976 35973 ft 457 kts 341°
2026-05-06 17:32 3.20518 -81.89227 35971 ft 457 kts 341°
2026-05-06 17:32 3.26457 -81.91486 35972 ft 457 kts 341°
2026-05-06 17:33 3.32363 -81.93721 35974 ft 457 kts 341°
2026-05-06 17:33 3.38311 -81.95970 35974 ft 457 kts 341°
2026-05-06 17:34 3.44255 -81.98225 35971 ft 457 kts 341°
2026-05-06 17:34 3.50201 -82.00475 35971 ft 457 kts 341°
2026-05-06 17:35 3.56149 -82.02713 35970 ft 457 kts 341°
2026-05-06 17:35 3.62088 -82.04978 35971 ft 457 kts 341°
2026-05-06 17:36 3.70998 -82.08388 35972 ft 457 kts 341°
2026-05-06 17:36 3.76940 -82.10655 35971 ft 457 kts 341°
2026-05-06 17:37 3.82893 -82.12927 35954 ft 458 kts 341°
2026-05-06 17:37 3.88852 -82.15200 35952 ft 459 kts 341°
2026-05-06 17:38 3.94825 -82.17475 35949 ft 459 kts 341°
2026-05-06 17:38 4.00799 -82.19751 35951 ft 460 kts 341°
2026-05-06 17:39 4.06773 -82.22030 35954 ft 460 kts 341°
2026-05-06 17:39 4.12748 -82.24323 35956 ft 460 kts 341°
2026-05-06 17:40 4.18729 -82.26609 35948 ft 460 kts 341°
2026-05-06 17:40 4.24681 -82.28877 35948 ft 461 kts 341°
2026-05-06 17:41 4.30678 -82.31157 35947 ft 461 kts 341°
2026-05-06 17:41 4.36671 -82.33443 35949 ft 461 kts 341°
2026-05-06 17:42 4.42663 -82.35739 35954 ft 461 kts 341°
2026-05-06 17:42 4.48653 -82.38039 35953 ft 461 kts 341°
2026-05-06 17:43 4.54654 -82.40326 35951 ft 461 kts 341°
2026-05-06 17:43 4.60657 -82.42603 35948 ft 461 kts 340°
2026-05-06 17:44 4.66661 -82.44883 35953 ft 462 kts 341°
2026-05-06 17:44 4.72675 -82.47161 35957 ft 462 kts 341°
2026-05-06 17:45 4.78692 -82.49448 35957 ft 462 kts 341°
2026-05-06 17:45 4.84711 -82.51726 35958 ft 463 kts 341°
2026-05-06 17:46 4.90733 -82.54014 35963 ft 463 kts 340°
2026-05-06 17:46 4.96751 -82.56311 35960 ft 463 kts 341°
2026-05-06 17:47 5.02778 -82.58602 35962 ft 463 kts 341°
2026-05-06 17:47 5.08807 -82.60890 35966 ft 463 kts 341°
2026-05-06 17:48 5.14798 -82.63164 35961 ft 463 kts 341°